Lawrence, KS

8:25 AM CST on February 12, 2016 (GMT -0600)
Lawrence Municipal

Weather History for KLWC - October, 2013

Change the Weather History Date:

Saturday, October 12, 2013

  Actual Average Record
Temperature  
Mean Temperature 58 °F 58 °F  
Max Temperature 73 °F 70 °F 84 °F (1999)
Min Temperature 42 °F 45 °F 26 °F (2006)
Degree Days  
Heating Degree Days 7 8  
Month to date heating degree days 40 83  
Since 1 July heating degree days 63 146  
Cooling Degree Days 0 1  
Month to date cooling degree days 36 18  
Year to date cooling degree days 1492 1362  
Growing Degree Days 9 (Base 50)    
Moisture  
Dew Point 41 °F    
Average Humidity 58    
Maximum Humidity 89    
Minimum Humidity 27    
Precipitation  
Precipitation 0.00 in 0.10 in 0.25 in (2004)
Month to date precipitation 0.96 1.36  
Year to date precipitation 24.58 33.38  
Sea Level Pressure  
Sea Level Pressure 30.11 in    
Wind  
Wind Speed 7 mph (NNW)    
Max Wind Speed 17 mph    
Max Gust Speed 22 mph    
Visibility 10 miles    
Events      
T = Trace of Precipitation, MM = Missing Value Source: NWS Daily Summary

Daily Weather History Graph

Daily Weather History Graph

Search for Another Location

Airport or City:

Trip Planner

Search our weather history database for the weather conditions in past years. The results will help you decide how hot, cold, wet, or windy it might be!

Date:

Astronomy

Oct. 12, 2013 Rise Set
Actual Time 7:27 AM CDT 6:46 PM CDT
Civil Twilight 7:00 AM CDT 7:13 PM CDT
Nautical Twilight 6:29 AM CDT 7:43 PM CDT
Astronomical Twilight 5:58 AM CDT 8:14 PM CDT
Moon 2:53 PM CDT 12:35 AM CDT
Length of Visible Light 12h 12m
Length of Day
11h 18m
First Quarter, 59% of the Moon is Illuminated
Oct 12
First Quarter
Oct 18
Full
Oct 26
Last Quarter
Nov 3
New
Nov 9
First Quarter

Hourly Weather History & Observations

Time (CDT) Temp. Windchill Dew Point Humidity Pressure Visibility Wind Dir Wind Speed Gust Speed Precip Events Conditions
12:52 AM 61.0 °F - 48.0 °F 62% 29.91 in 10.0 mi NW 8.1 mph - N/A   Clear
1:52 AM 57.0 °F - 48.0 °F 72% 29.92 in 10.0 mi NW 9.2 mph - N/A   Clear
2:52 AM 55.9 °F - 46.0 °F 69% 29.95 in 10.0 mi NW 6.9 mph - N/A   Clear
3:52 AM 53.1 °F - 44.1 °F 71% 29.97 in 10.0 mi NNW 5.8 mph - N/A   Clear
4:52 AM 52.0 °F - 43.0 °F 71% 30.00 in 10.0 mi NW 5.8 mph - N/A   Clear
5:52 AM 46.9 °F - 42.1 °F 83% 30.03 in 10.0 mi WNW 3.5 mph - N/A   Clear
6:52 AM 48.0 °F - 42.1 °F 80% 30.06 in 10.0 mi NW 5.8 mph - N/A   Clear
7:52 AM 45.0 °F 41.8 °F 41.0 °F 86% 30.09 in 10.0 mi NW 5.8 mph - N/A   Clear
8:52 AM 54.0 °F - 45.0 °F 72% 30.12 in 10.0 mi NW 8.1 mph - N/A   Clear
9:52 AM 61.0 °F - 42.1 °F 50% 30.13 in 10.0 mi North 11.5 mph - N/A   Clear
10:52 AM 64.9 °F - 42.1 °F 43% 30.15 in 10.0 mi North 9.2 mph - N/A   Clear
11:52 AM 66.9 °F - 39.0 °F 36% 30.16 in 10.0 mi NNW 12.7 mph 21.9 mph N/A   Clear
12:52 PM 71.1 °F - 39.0 °F 31% 30.16 in 10.0 mi North 10.4 mph - N/A   Clear
1:52 PM 71.1 °F - 37.9 °F 30% 30.15 in 10.0 mi NW 10.4 mph 17.3 mph N/A   Clear
2:52 PM 72.0 °F - 37.0 °F 28% 30.14 in 10.0 mi North 10.4 mph - N/A   Clear
3:52 PM 73.0 °F - 37.0 °F 27% 30.14 in 10.0 mi North 8.1 mph - N/A   Clear
4:52 PM 72.0 °F - 37.0 °F 28% 30.14 in 10.0 mi Variable 6.9 mph - N/A   Clear
5:52 PM 70.0 °F - 37.0 °F 30% 30.15 in 10.0 mi NNE 5.8 mph - N/A   Clear
6:52 PM 60.1 °F - 39.9 °F 47% 30.16 in 8.0 mi NNE 6.9 mph - N/A   Clear
7:52 PM 52.0 °F - 44.1 °F 74% 30.19 in 9.0 mi NNW 4.6 mph - N/A   Clear
8:52 PM 48.9 °F - 42.1 °F 77% 30.21 in 8.0 mi NW 4.6 mph - N/A   Clear
9:52 PM 46.9 °F - 41.0 °F 80% 30.24 in 9.0 mi Calm Calm - N/A   Clear
10:52 PM 45.0 °F - 39.9 °F 82% 30.26 in 10.0 mi Calm Calm - N/A   Clear
11:52 PM 43.0 °F - 39.9 °F 89% 30.28 in 10.0 mi Calm Calm - N/A   Clear